When you browse on this site, cookies collect data to enhance your experience and personalize the content and advertising you see.
Visit our Privacy Policy to learn more. By continuing to use the site, you agree to this use of cookies and data.
  • In Hungary
  • List of Countries
  • For 7 days
  • Water Temperature
  • Satellite Maps
  • Weather Map
  • News
  • Weather Widgets
  • user-avatar
    Login

    Hourly Weather Belogornoe

    Today, 17 November, Saturday

    Time Temperature Precipitation Wind Pressure Humidity
    00:00 -3°C° 0 mm 1 mps 771 mmHg 30%
    01:00 -3°C° 0 mm 1 mps 771 mmHg 29%
    02:00 -3°C° 0 mm 1 mps 770 mmHg 29%
    03:00 -3°C° 0 mm 1 mps 770 mmHg 28%
    04:00 -3°C° 0 mm 1 mps 770 mmHg 27%
    05:00 -3°C° 0 mm 1 mps 769 mmHg 27%
    06:00 -3°C° 0 mm 1 mps 769 mmHg 26%
    07:00 -2°C° 0 mm 1 mps 769 mmHg 25%
    08:00 -2°C° 0 mm 1 mps 768 mmHg 23%
    09:00 -1°C° 0 mm 1 mps 768 mmHg 22%
    10:00 -2°C° 0 mm 2 mps 768 mmHg 21%
    11:00 -1°C° 0 mm 2 mps 767 mmHg 19%
    12:00 +2°C° 0 mm 2 mps 767 mmHg 18%
    13:00 +1°C° 0 mm 2 mps 766 mmHg 19%
    14:00 +1°C° 0 mm 2 mps 766 mmHg 21%
    15:00 0°C° 0 mm 3 mps 765 mmHg 22%
    16:00 -1°C° 0 mm 3 mps 764 mmHg 23%
    17:00 -2°C° 0 mm 3 mps 764 mmHg 24%
    18:00 -2°C° 0 mm 3 mps 763 mmHg 25%
    19:00 -2°C° 0 mm 3 mps 763 mmHg 25%
    20:00 -2°C° 0 mm 3 mps 762 mmHg 25%
    21:00 -2°C° 0 mm 3 mps 762 mmHg 25%
    22:00 -2°C° 0 mm 3 mps 761 mmHg 25%
    23:00 -2°C° 0 mm 3 mps 761 mmHg 25%

    Tomorrow, 18 November, Sunday

    Time Temperature Precipitation Wind Pressure Humidity
    00:00 -4°C° 0 mm 3 mps 760 mmHg 26%
    01:00 -4°C° 0 mm 4 mps 760 mmHg 26%
    02:00 -4°C° 0 mm 4 mps 759 mmHg 26%
    03:00 -4°C° 0 mm 4 mps 759 mmHg 27%
    04:00 -4°C° 0 mm 4 mps 759 mmHg 27%
    05:00 -4°C° 0 mm 4 mps 758 mmHg 27%
    06:00 -4°C° 0 mm 3 mps 758 mmHg 28%
    07:00 -4°C° 0 mm 3 mps 758 mmHg 27%
    08:00 -4°C° 0 mm 4 mps 757 mmHg 26%
    09:00 -3°C° 0 mm 4 mps 757 mmHg 26%
    10:00 -3°C° 0 mm 4 mps 757 mmHg 25%
    11:00 -2°C° 0 mm 4 mps 757 mmHg 23%
    12:00 -1°C° 0 mm 4 mps 757 mmHg 22%
    13:00 0°C° 0 mm 3 mps 757 mmHg 24%
    14:00 0°C° 0 mm 3 mps 757 mmHg 26%
    15:00 -1°C° 0 mm 3 mps 757 mmHg 28%
    16:00 -1°C° 0 mm 3 mps 757 mmHg 31%
    17:00 -2°C° 0 mm 3 mps 757 mmHg 33%
    18:00 -4°C° 0 mm 3 mps 757 mmHg 36%
    19:00 -3°C° 0 mm 2 mps 757 mmHg 37%
    20:00 -3°C° 0 mm 2 mps 757 mmHg 38%
    21:00 -3°C° 0 mm 2 mps 758 mmHg 40%
    22:00 -4°C° 0 mm 2 mps 758 mmHg 40%
    23:00 -2°C° 0 mm 1 mps 758 mmHg 41%

    Day after tomorrow, 19 November, Monday

    Time Temperature Precipitation Wind Pressure Humidity
    00:00 -2°C° 0 mm 1 mps 758 mmHg 42%
    01:00 -2°C° 0 mm 1 mps 759 mmHg 43%
    02:00 -2°C° 0 mm 1 mps 759 mmHg 44%
    03:00 -2°C° 0 mm 1 mps 759 mmHg 45%
    04:00 -2°C° 0 mm 1 mps 759 mmHg 46%
    05:00 -3°C° 0 mm 0 mps 759 mmHg 47%
    06:00 -4°C° 0 mm 0 mps 760 mmHg 47%
    07:00 -3°C° 0 mm 0 mps 760 mmHg 46%
    08:00 -3°C° 0 mm 0 mps 761 mmHg 45%
    09:00 -2°C° 0 mm 0 mps 761 mmHg 44%
    10:00 -1°C° 0 mm 0 mps 761 mmHg 41%
    11:00 0°C° 0 mm 0 mps 762 mmHg 39%
    12:00 +1°C° 0 mm 0 mps 762 mmHg 36%
    13:00 0°C° 0 mm 0 mps 762 mmHg 38%
    14:00 0°C° 0 mm 0 mps 762 mmHg 40%
    15:00 0°C° 0 mm 0 mps 763 mmHg 42%
    16:00 -1°C° 0 mm 0 mps 763 mmHg 43%
    17:00 -1°C° 0 mm 0 mps 763 mmHg 44%
    18:00 -2°C° 0 mm 0 mps 763 mmHg 45%
    19:00 -2°C° 0 mm 0 mps 763 mmHg 45%
    20:00 -1°C° 0 mm 1 mps 763 mmHg 45%
    21:00 -1°C° 0 mm 1 mps 763 mmHg 46%
    22:00 -1°C° 0 mm 1 mps 764 mmHg 46%
    23:00 -2°C° 0 mm 1 mps 764 mmHg 46%

    20 November, Tuesday

    Time Temperature Precipitation Wind Pressure Humidity
    00:00 -2°C° 0 mm 1 mps 764 mmHg 46%
    01:00 -2°C° 0 mm 1 mps 764 mmHg 46%
    02:00 -2°C° 0 mm 1 mps 765 mmHg 46%
    03:00 -2°C° 0 mm 1 mps 765 mmHg 46%
    04:00 -2°C° 0 mm 1 mps 765 mmHg 46%
    05:00 -2°C° 0 mm 1 mps 765 mmHg 46%
    06:00 -3°C° 0 mm 0 mps 764 mmHg 45%
    07:00 -2°C° 0 mm 1 mps 765 mmHg 44%
    08:00 -2°C° 0 mm 1 mps 765 mmHg 43%
    09:00 -1°C° 0 mm 1 mps 765 mmHg 42%
    10:00 -1°C° 0 mm 1 mps 765 mmHg 40%
    11:00 -1°C° 0 mm 0 mps 765 mmHg 38%
    12:00 0°C° 0 mm 0 mps 764 mmHg 36%
    13:00 0°C° 0 mm 0 mps 764 mmHg 37%
    14:00 -1°C° 0 mm 0 mps 764 mmHg 38%
    15:00 -1°C° 0 mm 0 mps 763 mmHg 40%
    16:00 -1°C° 0 mm 0 mps 763 mmHg 40%
    17:00 -2°C° 0 mm 0 mps 763 mmHg 41%
    18:00 -2°C° 0 mm 0 mps 762 mmHg 41%
    19:00 -1°C° 0 mm 1 mps 762 mmHg 41%
    20:00 -1°C° 0 mm 1 mps 762 mmHg 41%
    21:00 -1°C° 0 mm 1 mps 762 mmHg 41%
    22:00 -1°C° 0 mm 1 mps 761 mmHg 41%
    23:00 -1°C° 0 mm 1 mps 761 mmHg 41%

    21 November, Wednesday

    Time Temperature Precipitation Wind Pressure Humidity
    00:00 -1°C° 0 mm 1 mps 761 mmHg 41%
    01:00 -1°C° 0 mm 1 mps 760 mmHg 41%
    02:00 -1°C° 0 mm 1 mps 760 mmHg 42%
    03:00 -1°C° 0 mm 1 mps 760 mmHg 42%
    04:00 -1°C° 0 mm 1 mps 759 mmHg 43%
    05:00 -1°C° 0 mm 1 mps 759 mmHg 44%
    06:00 -1°C° 0 mm 1 mps 759 mmHg 45%
    07:00 -1°C° 0 mm 1 mps 759 mmHg 46%
    08:00 -1°C° 0 mm 1 mps 758 mmHg 47%
    09:00 0°C° 0 mm 1 mps 758 mmHg 48%
    10:00 0°C° 0 mm 1 mps 758 mmHg 50%
    11:00 +1°C° 0 mm 1 mps 758 mmHg 52%
    12:00 +1°C° 0 mm 1 mps 757 mmHg 54%
    13:00 +1°C° 0 mm 1 mps 757 mmHg 57%
    14:00 +1°C° 0 mm 1 mps 757 mmHg 60%
    15:00 +1°C° 0 mm 1 mps 756 mmHg 63%
    16:00 0°C° 0 mm 1 mps 756 mmHg 66%
    17:00 0°C° 0 mm 1 mps 756 mmHg 68%
    18:00 -1°C° 0 mm 1 mps 756 mmHg 70%
    19:00 -1°C° 0 mm 1 mps 756 mmHg 71%
    20:00 -1°C° 0 mm 1 mps 755 mmHg 71%
    21:00 -1°C° 0 mm 1 mps 755 mmHg 72%
    22:00 -3°C° 0 mm 2 mps 755 mmHg 72%
    23:00 -4°C° 0 mm 2 mps 755 mmHg 72%

    22 November, Thursday

    Time Temperature Precipitation Wind Pressure Humidity
    00:00 -4°C° 0 mm 2 mps 755 mmHg 72%
    01:00 -4°C° 0 mm 2 mps 754 mmHg 74%
    02:00 -4°C° 0 mm 2 mps 754 mmHg 76%
    03:00 -5°C° 0 mm 2 mps 754 mmHg 78%
    04:00 -5°C° 0 mm 2 mps 754 mmHg 81%
    05:00 -6°C° 0 mm 3 mps 754 mmHg 84%
    06:00 -6°C° 0 mm 3 mps 754 mmHg 87%
    07:00 -6°C° 0 mm 3 mps 754 mmHg 86%
    08:00 -6°C° 0 mm 3 mps 754 mmHg 84%
    09:00 -5°C° 0 mm 4 mps 754 mmHg 83%
    10:00 -5°C° 0 mm 4 mps 754 mmHg 77%
    11:00 -4°C° 0 mm 4 mps 754 mmHg 72%
    12:00 -3°C° 0 mm 4 mps 754 mmHg 66%
    13:00 -4°C° 0 mm 3 mps 754 mmHg 64%
    14:00 -4°C° 0 mm 3 mps 754 mmHg 63%
    15:00 -4°C° 0 mm 3 mps 754 mmHg 61%
    16:00 -4°C° 0 mm 3 mps 754 mmHg 64%
    17:00 -5°C° 0 mm 3 mps 754 mmHg 67%
    18:00 -6°C° 0 mm 3 mps 754 mmHg 69%
    19:00 -6°C° 0 mm 3 mps 754 mmHg 70%
    20:00 -6°C° 0 mm 3 mps 754 mmHg 72%
    21:00 -6°C° 0 mm 3 mps 754 mmHg 73%
    22:00 -6°C° 0 mm 3 mps 754 mmHg 73%
    23:00 -7°C° 0 mm 3 mps 755 mmHg 73%
    Show more